Location: Gleizolles
(44.4833°N, 6.7667°E)
Time: 19:16:52
(UTC+00:00)

Envisat - Pass Details

Date: 30 November 2022
Orbit: 763 x 765 km, 98.2° (Epoch: 06 February)

Event Time Altitude Azimuth Distance (km) Brightness Sun altitude
Rises 02:53:01 0° 24° (NNE) 3,243 6.6 -41.2°
Reaches altitude 10° 02:55:41 10° 37° (NE) 2,312 5.9 -40.7°
Enters shadow 02:56:04 12° 40° (NE) 2,193 5.8 -40.6°
